Flight Track Log - Related Links

Times and Time Zones

All times are in EDT time to prevent confusion due to time zone crossing. See the EJA982 flight status page for this flight to view local times or setup timezone preferences in your user account.

Time Position Orientation Groundspeed Altitude Reporting Facility
EDT Latitude Longitude Course Direction KTS MPH feet Rate Location/Type
Sat 04:27:40 PM 41.0833 -73.7833 270° West 209 241 4,300  Level New York TRACON
Sat 04:28:40 PM 41.0833 -73.8667 270° West 250 288 7,500 3,200 Climbing New York TRACON
Sat 04:29:40 PM 41.1000 -73.9500 285° West 251 289 10,700 2,612 Climbing New York TRACON
Sat 04:31:07 PM 41.1439 -74.1022 291° West 299 344 13,900 2,359 Climbing New York Center
Sat 04:32:05 PM 41.1636 -74.2133 283° West 338 389 16,400 2,168 Climbing New York Center
Sat 04:33:06 PM 41.1881 -74.3633 282° West 368 423 18,200 1,488 Climbing New York Center
Sat 04:34:06 PM 41.2425 -74.4906 300° West 385 443 19,400 900 Climbing New York Center
Sat 04:35:06 PM 41.2997 -74.5903 307° West 400 460 20,000 295 Climbing New York Center
Sat 04:36:08 PM 41.3744 -74.7217 307° West 410 472 20,000  Level New York Center
Sat 04:37:06 PM 41.4433 -74.8419 307° West 415 478 20,000  Level New York Center
Sat 04:38:07 PM 41.5119 -74.9681 306° West 420 483 20,000  Level New York Center
Sat 04:39:06 PM 41.5844 -75.0947 307° West 426 490 20,000  Level New York Center
Sat 04:40:08 PM 41.6528 -75.2183 307° West 426 490 20,000  Level New York Center
Sat 04:41:06 PM 41.7211 -75.3369 308° West 415 478 20,000  Level New York Center
Sat 04:42:07 PM 41.7869 -75.4611 305° West 415 478 20,000  Level New York Center
Sat 04:43:06 PM 41.8550 -75.5856 306° West 415 478 20,000 -1,050 Level New York Center
Sat 04:44:07 PM 41.9286 -75.7192 307° West 415 478 17,900 -2,231 Descending New York Center
Sat 04:45:07 PM 41.9922 -75.8356 306° West 399 459 15,500 -2,083 Descending New York Center
Sat 04:46:08 PM 42.0403 -75.9286 305° West 361 415 13,700 -1,831 Descending New York Center
Sat 04:47:05 PM 42.0983 -76.0308 307° West 349 402 11,900 -2,051 Descending New York Center
Sat 04:48:05 PM 42.1444 -76.1183 305° West 325 374 9,700 -1,450 Descending New York Center
Sat 04:49:05 PM 42.1978 -76.1789 320° Northwest 279 321 9,000 -1,131 Descending New York Center
Sat 04:50:07 PM 42.2497 -76.2306 324° Northwest 251 289 7,400 -2,244 Descending New York Center
Sat 04:51:08 PM 42.3017 -76.2742 328° Northwest 236 272 4,400 -2,136 Descending New York Center
Sat 04:52:05 PM 42.3581 -76.3156 332° Northwest 231 266 3,200 -769 Descending New York Center
Sat 04:53:05 PM 42.4103 -76.3564 330° Northwest 219 252 2,900 -344 Descending New York Center
Sat 04:54:07 PM 42.4422 -76.3872 325° Northwest 188 216 2,500 3,984 Descending New York Center
Sat 04:55:07 PM 42.4900 -76.4336 324° Northwest 179 206 11,000 4,322 Climbing New York Center
Sat 04:56:05 PM 42.5297 -76.4706 326° Northwest 179 206 11,000  Level New York Center
Sat 04:57:06 PM 42.5694 -76.5108 323° Northwest 179 206 11,000  Level New York Center
Sat 04:58:08 PM 42.6094 -76.5481 326° Northwest 179 206 11,000  Level New York Center
Sat 05:00:00 PM 42.4914 -76.4587 156° South  Level Estimated

Login

Don't have an account? Register now (free) for customized features, flight alerts, and more!